Home > Weather > Caversham > Past weeks

Flag for United Kingdom Past Weather in Caversham, England, United Kingdom — Yesterday and Last 2 Weeks

Now
51 °F

Overcast.


Feels Like: 51 °F
Forecast: 48 / 66 °F
Wind: 1 mph from Southeast

Location: Benson

Current Time: May 26, 2016 at 10:02:43 AM

Latest Report: May 26, 2016 at 8:00 AM


Visibility: 5 mi

Pressure: 30.03 "Hg

Humidity: 88%

Dew Point: 47 °F

Location of CavershamLocation

Past Weather in Caversham — Graph

°F

Caversham Temperature Yesterday

Maximum temperature yesterday: 53 °F (at 2:00 PM)
Minimum temperature yesterday: 42 °F (at 1:00 AM)
Average temperature yesterday: 48 °F

High & Low Weather Summary for the Past Weeks

 TemperatureHumidityPressure
High71 °F (May 12, 3:00 PM)100% (May 17, 8:00 AM)30.22 "Hg (May 17, 8:00 AM)
Low37 °F (May 24, 5:00 AM)44% (May 15, 1:00 PM)29.59 "Hg (May 12, 4:00 PM)
Average54 °F79%29.92 "Hg
* Reported May 11 8:00 AM — May 26 8:00 AM, Caversham, Weather by CustomWeather, © 2016

Note: Actual official high and low records may vary slightly from our data, if they occured in-between our weather recording intervals... More about our weather records

Advertising

Caversham Weather History for the Previous 24 Hours

Scroll right to see more
 ConditionsComfort  
Time TempWeatherWind HumidityBarometerVisibility
8:00 AM
Thu, May 26
51 °FOvercast.1 mph88%30.03 "Hg5 mi
7:00 AM49 °FOvercast.3 mph93%30.02 "Hg5 mi
6:00 AM49 °FOvercast.2 mph94%30.02 "Hg4 mi
5:00 AM49 °FOvercast.2 mph93%30.02 "Hg5 mi
4:00 AM49 °FCool.2 mph93%30.02 "Hg6 mi
3:00 AM49 °FCool.2 mph91%30.02 "Hg6 mi
2:00 AM49 °FOvercast.3 mph90%30.02 "Hg9 mi
1:00 AM50 °FOvercast.3 mph87%30.02 "Hg11 mi
12:00 AM50 °FOvercast.2 mph88%30.02 "Hg9 mi
11:00 PM
Wed, May 25
50 °FOvercast.2 mph87%30.03 "Hg12 mi
10:00 PM50 °FOvercast.1 mph90%30.04 "Hg12 mi
9:00 PM50 °FOvercast.3 mph85%30.03 "Hg12 mi
8:00 PM51 °FOvercast.3 mph85%30.03 "Hg11 mi
7:00 PM51 °FOvercast.6 mph80%30.03 "Hg9 mi
6:00 PM52 °FOvercast.5 mph77%30.03 "Hg9 mi
5:00 PM52 °FOvercast.6 mph79%30.03 "Hg19 mi
4:00 PM52 °FOvercast.7 mph78%30.04 "Hg19 mi
2:00 PM53 °FOvercast.10 mph76%30.04 "Hg19 mi
1:00 PM51 °FOvercast.9 mph80%30.06 "Hg19 mi
12:00 PM49 °FLight rain. Low clouds.9 mph90%30.07 "Hg6 mi
11:00 AM49 °FOvercast.7 mph85%30.08 "Hg16 mi
10:00 AM47 °FLight rain. Overcast.8 mph85%30.09 "Hg9 mi
Weather by CustomWeather, © 2016

See weather overviewHow to use our weather pages